Time,TemperatureF,DewpointF,PressureIn,WindDirection,WindDirectionDegrees,WindSpeedMPH,WindSpeedGustMPH,Humidity,HourlyPrecipIn,Conditions,Clouds,dailyrainin,SoftwareType,DateUTC
2013-02-23 00:03:00,70.0,69.0,30.05,South,190,0.0,3.0,96,0.00,,,0.00,,2013-02-23 05:03:00,
2013-02-23 00:12:00,70.0,69.0,30.05,South,190,0.0,3.0,96,0.00,,,0.00,,2013-02-23 05:12:00,
2013-02-23 00:22:00,70.0,69.0,30.05,SSE,160,0.0,2.0,96,0.00,,,0.00,,2013-02-23 05:22:00,
2013-02-23 00:33:00,69.0,68.0,30.05,East,90,0.0,0.0,96,0.00,,,0.00,,2013-02-23 05:33:00,
2013-02-23 00:42:00,69.0,68.0,30.05,East,90,0.0,0.0,96,0.00,,,0.00,,2013-02-23 05:42:00,
2013-02-23 00:52:00,69.0,68.0,30.04,East,90,0.0,0.0,96,0.00,,,0.00,,2013-02-23 05:52:00,
2013-02-23 01:01:00,69.0,68.0,30.03,East,90,0.0,0.0,96,0.00,,,0.00,,2013-02-23 06:01:00,
2013-02-23 01:11:00,69.0,68.0,30.03,East,90,0.0,0.0,96,0.00,,,0.00,,2013-02-23 06:11:00,
2013-02-23 01:22:00,69.0,68.0,30.03,South,187,0.0,2.0,96,0.00,,,0.00,,2013-02-23 06:22:00,
2013-02-23 01:32:00,69.0,68.0,30.03,East,90,0.0,0.0,96,0.00,,,0.00,,2013-02-23 06:32:00,
2013-02-23 01:42:00,69.0,68.0,30.03,East,90,0.0,0.0,96,0.00,,,0.00,,2013-02-23 06:42:00,
2013-02-23 01:52:00,69.0,68.0,30.03,East,90,0.0,0.0,96,0.00,,,0.00,,2013-02-23 06:52:00,
2013-02-23 02:01:00,69.0,68.0,30.02,East,90,0.0,0.0,96,0.00,,,0.00,,2013-02-23 07:01:00,
2013-02-23 02:11:00,69.0,68.0,30.02,East,90,0.0,0.0,97,0.00,,,0.00,,2013-02-23 07:11:00,
2013-02-23 02:21:00,69.0,68.0,30.02,East,90,0.0,0.0,97,0.00,,,0.00,,2013-02-23 07:21:00,
2013-02-23 02:32:00,69.0,68.0,30.01,East,90,0.0,0.0,97,0.00,,,0.00,,2013-02-23 07:32:00,
2013-02-23 02:42:00,69.0,68.0,30.01,East,90,0.0,0.0,97,0.00,,,0.00,,2013-02-23 07:42:00,
2013-02-23 02:52:00,69.0,68.0,30.01,SW,218,0.0,1.0,97,0.00,,,0.00,,2013-02-23 07:52:00,
2013-02-23 03:01:00,69.0,68.0,30.01,East,90,0.0,0.0,97,0.00,,,0.00,,2013-02-23 08:01:00,
2013-02-23 03:11:00,69.0,68.0,30.01,East,90,0.0,0.0,97,0.00,,,0.00,,2013-02-23 08:11:00,
2013-02-23 03:21:00,68.0,67.0,30.00,East,90,0.0,0.0,97,0.00,,,0.00,,2013-02-23 08:21:00,
2013-02-23 03:32:00,68.0,67.0,30.00,East,90,0.0,0.0,97,0.00,,,0.00,,2013-02-23 08:32:00,
2013-02-23 03:42:00,68.0,67.0,30.00,East,90,0.0,0.0,97,0.00,,,0.00,,2013-02-23 08:42:00,
2013-02-23 03:53:00,67.0,66.0,29.99,East,90,0.0,0.0,97,0.00,,,0.00,,2013-02-23 08:53:00,
2013-02-23 04:02:00,67.0,66.0,29.99,East,90,0.0,0.0,97,0.00,,,0.00,,2013-02-23 09:02:00,
2013-02-23 04:11:00,67.0,66.0,29.99,East,90,0.0,0.0,97,0.00,,,0.00,,2013-02-23 09:11:00,
2013-02-23 04:22:00,67.0,66.0,29.99,East,90,0.0,0.0,98,0.00,,,0.00,,2013-02-23 09:22:00,
2013-02-23 04:32:00,66.0,65.0,29.99,East,90,0.0,0.0,98,0.00,,,0.00,,2013-02-23 09:32:00,
2013-02-23 04:42:00,66.0,65.0,29.99,East,90,0.0,0.0,98,0.00,,,0.00,,2013-02-23 09:42:00,
2013-02-23 04:52:00,66.0,65.0,29.99,East,90,0.0,0.0,97,0.00,,,0.00,,2013-02-23 09:52:00,
2013-02-23 05:01:00,65.0,64.0,29.99,East,90,0.0,0.0,98,0.00,,,0.00,,2013-02-23 10:01:00,
2013-02-23 05:11:00,65.0,64.0,29.99,East,90,0.0,0.0,98,0.00,,,0.00,,2013-02-23 10:11:00,
2013-02-23 05:21:00,65.0,64.0,29.99,East,90,0.0,0.0,98,0.00,,,0.00,,2013-02-23 10:21:00,
2013-02-23 05:32:00,65.0,64.0,29.99,East,90,0.0,0.0,98,0.00,,,0.00,,2013-02-23 10:32:00,
2013-02-23 05:42:00,65.0,64.0,29.99,East,90,0.0,0.0,98,0.00,,,0.00,,2013-02-23 10:42:00,
2013-02-23 05:52:00,65.0,64.0,29.99,East,90,0.0,0.0,98,0.00,,,0.00,,2013-02-23 10:52:00,
2013-02-23 06:02:00,65.0,65.0,29.99,East,90,0.0,0.0,99,0.00,,,0.00,,2013-02-23 11:02:00,
2013-02-23 06:11:00,65.0,65.0,29.99,East,90,0.0,0.0,99,0.00,,,0.00,,2013-02-23 11:11:00,
2013-02-23 06:22:00,65.0,65.0,29.99,East,90,0.0,0.0,99,0.00,,,0.00,,2013-02-23 11:22:00,
2013-02-23 06:32:00,65.0,65.0,30.00,East,90,0.0,0.0,99,0.00,,,0.00,,2013-02-23 11:32:00,
2013-02-23 06:42:00,65.0,65.0,30.00,East,90,0.0,0.0,99,0.00,,,0.00,,2013-02-23 11:42:00,
2013-02-23 06:52:00,65.0,65.0,30.00,East,90,0.0,0.0,99,0.00,,,0.00,,2013-02-23 11:52:00,
2013-02-23 07:02:00,65.0,65.0,30.00,East,90,0.0,0.0,99,0.00,,,0.00,,2013-02-23 12:02:00,
2013-02-23 07:11:00,65.0,65.0,30.00,East,90,0.0,0.0,99,0.00,,,0.00,,2013-02-23 12:11:00,
2013-02-23 07:21:00,66.0,66.0,30.00,East,90,0.0,0.0,99,0.00,,,0.00,,2013-02-23 12:21:00,
2013-02-23 07:32:00,66.0,66.0,30.00,East,90,0.0,0.0,99,0.00,,,0.00,,2013-02-23 12:32:00,
2013-02-23 07:42:00,66.0,66.0,30.00,East,90,0.0,0.0,99,0.00,,,0.00,,2013-02-23 12:42:00,
2013-02-23 07:52:00,66.0,66.0,30.01,WSW,253,0.0,2.0,99,0.00,,,0.00,,2013-02-23 12:52:00,
2013-02-23 08:02:00,67.0,67.0,30.01,SE,145,0.0,1.0,99,0.00,,,0.00,,2013-02-23 13:02:00,
2013-02-23 08:11:00,67.0,67.0,30.01,SW,224,0.0,1.0,99,0.00,,,0.00,,2013-02-23 13:11:00,
2013-02-23 08:22:00,67.0,67.0,30.01,SW,224,0.0,1.0,99,0.00,,,0.00,,2013-02-23 13:22:00,
2013-02-23 08:32:00,68.0,68.0,30.01,South,178,0.0,3.0,99,0.00,,,0.00,,2013-02-23 13:32:00,
2013-02-23 08:42:00,69.0,69.0,30.02,SE,136,0.0,3.0,99,0.00,,,0.00,,2013-02-23 13:42:00,
2013-02-23 08:52:00,69.0,69.0,30.02,SE,136,0.0,3.0,99,0.00,,,0.00,,2013-02-23 13:52:00,
2013-02-23 09:02:00,69.0,69.0,30.03,South,189,2.0,7.0,99,0.00,,,0.00,,2013-02-23 14:02:00,
2013-02-23 09:11:00,69.0,69.0,30.03,South,189,2.0,7.0,99,0.00,,,0.00,,2013-02-23 14:11:00,
2013-02-23 09:21:00,69.0,68.0,30.02,SE,131,0.0,3.0,98,0.00,,,0.00,,2013-02-23 14:21:00,
2013-02-23 09:32:00,72.0,71.0,30.02,South,185,1.0,5.0,97,0.00,,,0.00,,2013-02-23 14:32:00,
2013-02-23 09:42:00,72.0,71.0,30.02,South,185,1.0,5.0,97,0.00,,,0.00,,2013-02-23 14:42:00,
2013-02-23 09:52:00,74.0,72.0,30.02,SE,145,1.0,5.0,92,0.00,,,0.00,,2013-02-23 14:52:00,
2013-02-23 10:02:00,75.0,71.0,30.02,SW,222,2.0,7.0,87,0.00,,,0.00,,2013-02-23 15:02:00,
2013-02-23 10:11:00,75.0,71.0,30.02,SW,222,2.0,7.0,87,0.00,,,0.00,,2013-02-23 15:11:00,
2013-02-23 10:22:00,75.0,71.0,30.02,South,174,2.0,7.0,87,0.00,,,0.00,,2013-02-23 15:22:00,
2013-02-23 10:32:00,77.0,71.0,30.02,South,181,2.0,7.0,83,0.00,,,0.00,,2013-02-23 15:32:00,
2013-02-23 10:42:00,77.0,71.0,30.02,South,181,2.0,7.0,83,0.00,,,0.00,,2013-02-23 15:42:00,
2013-02-23 10:52:00,78.0,71.0,30.01,SSE,165,2.0,6.0,80,0.00,,,0.00,,2013-02-23 15:52:00,
2013-02-23 11:01:00,79.0,71.0,30.01,South,186,2.0,9.0,76,0.00,,,0.00,,2013-02-23 16:01:00,
2013-02-23 11:11:00,79.0,71.0,30.01,South,186,2.0,9.0,76,0.00,,,0.00,,2013-02-23 16:11:00,
2013-02-23 11:21:00,80.0,71.0,30.00,SSE,164,2.0,8.0,74,0.00,,,0.00,,2013-02-23 16:21:00,
2013-02-23 11:32:00,80.0,70.0,30.00,WSW,257,1.0,4.0,72,0.00,,,0.00,,2013-02-23 16:32:00,
2013-02-23 11:42:00,80.0,70.0,30.00,WSW,257,1.0,4.0,72,0.00,,,0.00,,2013-02-23 16:42:00,
2013-02-23 11:51:00,82.0,71.0,29.99,SSE,165,3.0,7.0,69,0.00,,,0.00,,2013-02-23 16:51:00,
2013-02-23 12:01:00,83.0,70.0,29.98,SSW,200,2.0,8.0,66,0.00,,,0.00,,2013-02-23 17:01:00,
2013-02-23 12:11:00,82.0,69.0,29.98,West,272,2.0,6.0,65,0.00,,,0.00,,2013-02-23 17:11:00,
2013-02-23 12:21:00,82.0,69.0,29.98,West,272,2.0,6.0,65,0.00,,,0.00,,2013-02-23 17:21:00,
2013-02-23 12:32:00,83.0,70.0,29.97,WSW,257,2.0,9.0,65,0.00,,,0.00,,2013-02-23 17:32:00,
2013-02-23 12:42:00,83.0,70.0,29.97,WSW,257,2.0,9.0,65,0.00,,,0.00,,2013-02-23 17:42:00,
2013-02-23 12:52:00,83.0,69.0,29.97,WSW,245,2.0,6.0,63,0.00,,,0.00,,2013-02-23 17:52:00,
2013-02-23 13:02:00,84.0,70.0,29.96,West,266,1.0,8.0,63,0.00,,,0.00,,2013-02-23 18:02:00,
2013-02-23 13:12:00,84.0,70.0,29.96,West,266,1.0,8.0,63,0.00,,,0.00,,2013-02-23 18:12:00,
2013-02-23 13:22:00,85.0,69.0,29.96,SSW,193,3.0,9.0,59,0.00,,,0.00,,2013-02-23 18:22:00,
2013-02-23 13:32:00,86.0,69.0,29.95,SW,230,2.0,7.0,57,0.00,,,0.00,,2013-02-23 18:32:00,
2013-02-23 13:42:00,86.0,69.0,29.95,SW,230,2.0,7.0,57,0.00,,,0.00,,2013-02-23 18:42:00,
2013-02-23 13:52:00,85.0,69.0,29.94,SW,220,2.0,7.0,58,0.00,,,0.00,,2013-02-23 18:52:00,
2013-02-23 14:01:00,86.0,66.0,29.93,West,263,2.0,8.0,52,0.00,,,0.00,,2013-02-23 19:01:00,
2013-02-23 14:11:00,86.0,66.0,29.92,WNW,282,2.0,8.0,52,0.00,,,0.00,,2013-02-23 19:11:00,
2013-02-23 14:21:00,86.0,66.0,29.92,WNW,282,2.0,8.0,52,0.00,,,0.00,,2013-02-23 19:21:00,
2013-02-23 14:32:00,86.0,66.0,29.92,West,274,2.0,8.0,52,0.00,,,0.00,,2013-02-23 19:32:00,
2013-02-23 14:41:00,86.0,66.0,29.92,West,274,2.0,8.0,52,0.00,,,0.00,,2013-02-23 19:41:00,
2013-02-23 14:52:00,87.0,66.0,29.91,West,265,2.0,6.0,50,0.00,,,0.00,,2013-02-23 19:52:00,
2013-02-23 15:01:00,88.0,67.0,29.91,West,269,1.0,4.0,50,0.00,,,0.00,,2013-02-23 20:01:00,
2013-02-23 15:11:00,88.0,67.0,29.91,West,269,1.0,4.0,50,0.00,,,0.00,,2013-02-23 20:11:00,
2013-02-23 15:21:00,88.0,65.0,29.90,West,276,3.0,9.0,46,0.00,,,0.00,,2013-02-23 20:21:00,
2013-02-23 15:32:00,88.0,65.0,29.90,West,264,2.0,8.0,46,0.00,,,0.00,,2013-02-23 20:32:00,
2013-02-23 15:42:00,88.0,65.0,29.90,West,264,2.0,8.0,46,0.00,,,0.00,,2013-02-23 20:42:00,
2013-02-23 15:53:00,87.0,65.0,29.89,WSW,254,1.0,7.0,48,0.00,,,0.00,,2013-02-23 20:53:00,
2013-02-23 16:01:00,89.0,65.0,29.89,West,280,2.0,6.0,46,0.00,,,0.00,,2013-02-23 21:01:00,
2013-02-23 16:11:00,89.0,65.0,29.89,SSW,209,2.0,6.0,45,0.00,,,0.00,,2013-02-23 21:11:00,
2013-02-23 16:22:00,89.0,65.0,29.89,SSW,209,2.0,6.0,45,0.00,,,0.00,,2013-02-23 21:22:00,
2013-02-23 16:32:00,90.0,66.0,29.89,West,279,1.0,4.0,45,0.00,,,0.00,,2013-02-23 21:32:00,
2013-02-23 16:42:00,90.0,66.0,29.89,West,279,1.0,4.0,45,0.00,,,0.00,,2013-02-23 21:42:00,
2013-02-23 16:51:00,90.0,66.0,29.88,South,188,1.0,4.0,46,0.00,,,0.00,,2013-02-23 21:51:00,
2013-02-23 17:02:00,86.0,65.0,29.88,West,261,2.0,5.0,50,0.00,,,0.00,,2013-02-23 22:02:00,
2013-02-23 17:11:00,85.0,65.0,29.88,WSW,240,0.0,4.0,52,0.00,,,0.00,,2013-02-23 22:11:00,
2013-02-23 17:22:00,85.0,65.0,29.88,WSW,240,0.0,4.0,52,0.00,,,0.00,,2013-02-23 22:22:00,
2013-02-23 17:32:00,84.0,66.0,29.88,WSW,250,0.0,5.0,54,0.00,,,0.00,,2013-02-23 22:32:00,
2013-02-23 17:42:00,84.0,66.0,29.88,WSW,250,0.0,5.0,54,0.00,,,0.00,,2013-02-23 22:42:00,
2013-02-23 17:51:00,83.0,66.0,29.88,WNW,285,1.0,5.0,57,0.00,,,0.00,,2013-02-23 22:51:00,
2013-02-23 18:01:00,80.0,68.0,29.88,WNW,282,0.0,2.0,68,0.00,,,0.00,,2013-02-23 23:01:00,
2013-02-23 18:11:00,75.0,69.0,29.88,East,90,0.0,0.0,82,0.01,,,0.01,,2013-02-23 23:11:00,
2013-02-23 18:21:00,75.0,69.0,29.88,East,90,0.0,0.0,82,0.01,,,0.01,,2013-02-23 23:21:00,
2013-02-23 18:32:00,74.0,70.0,29.89,East,90,0.0,0.0,87,0.01,,,0.01,,2013-02-23 23:32:00,
2013-02-23 18:52:00,74.0,71.0,29.89,East,90,0.0,0.0,89,0.01,,,0.01,,2013-02-23 23:52:00,
2013-02-23 19:01:00,73.0,70.0,29.90,East,90,0.0,0.0,89,0.01,,,0.01,,2013-02-24 00:01:00,
2013-02-23 19:22:00,73.0,69.0,29.90,East,90,0.0,0.0,88,0.00,,,0.01,,2013-02-24 00:22:00,
2013-02-23 19:32:00,73.0,68.0,29.91,WNW,291,0.0,2.0,85,0.00,,,0.01,,2013-02-24 00:32:00,
2013-02-23 19:42:00,73.0,68.0,29.91,WNW,291,0.0,2.0,85,0.00,,,0.01,,2013-02-24 00:42:00,
2013-02-23 19:52:00,75.0,68.0,29.91,West,268,0.0,1.0,78,0.00,,,0.01,,2013-02-24 00:52:00,
2013-02-23 20:01:00,76.0,68.0,29.92,East,90,0.0,0.0,76,0.00,,,0.01,,2013-02-24 01:01:00,
2013-02-23 20:11:00,76.0,68.0,29.92,East,90,0.0,0.0,76,0.00,,,0.01,,2013-02-24 01:11:00,
2013-02-23 20:22:00,75.0,67.0,29.92,East,90,0.0,0.0,77,0.00,,,0.01,,2013-02-24 01:22:00,
2013-02-23 20:32:00,73.0,67.0,29.93,East,90,0.0,0.0,81,0.00,,,0.01,,2013-02-24 01:32:00,
2013-02-23 20:42:00,73.0,67.0,29.93,East,90,0.0,0.0,81,0.00,,,0.01,,2013-02-24 01:42:00,
2013-02-23 20:51:00,72.0,66.0,29.93,East,90,0.0,0.0,82,0.00,,,0.01,,2013-02-24 01:51:00,
2013-02-23 21:01:00,71.0,66.0,29.93,East,90,0.0,0.0,84,0.00,,,0.01,,2013-02-24 02:01:00,
2013-02-23 21:11:00,71.0,66.0,29.93,East,90,0.0,0.0,84,0.00,,,0.01,,2013-02-24 02:11:00,
2013-02-23 21:22:00,71.0,66.0,29.94,WNW,289,0.0,1.0,85,0.00,,,0.01,,2013-02-24 02:22:00,
2013-02-23 21:32:00,72.0,67.0,29.94,WNW,284,0.0,3.0,83,0.00,,,0.01,,2013-02-24 02:32:00,
2013-02-23 21:42:00,72.0,67.0,29.94,WNW,284,0.0,3.0,83,0.00,,,0.01,,2013-02-24 02:42:00,
2013-02-23 21:52:00,73.0,67.0,29.94,West,278,0.0,3.0,82,0.00,,,0.01,,2013-02-24 02:52:00,
2013-02-23 22:02:00,72.0,67.0,29.94,West,272,0.0,1.0,83,0.00,,,0.01,,2013-02-24 03:02:00,
2013-02-23 22:11:00,72.0,67.0,29.94,WSW,243,0.0,1.0,85,0.00,,,0.01,,2013-02-24 03:11:00,
2013-02-23 22:22:00,72.0,67.0,29.94,WSW,243,0.0,1.0,85,0.00,,,0.01,,2013-02-24 03:22:00,
2013-02-23 22:32:00,71.0,67.0,29.95,West,278,0.0,3.0,87,0.00,,,0.01,,2013-02-24 03:32:00,
2013-02-23 22:42:00,71.0,67.0,29.95,West,278,0.0,3.0,87,0.00,,,0.01,,2013-02-24 03:42:00,
2013-02-23 22:52:00,71.0,67.0,29.95,West,275,0.0,2.0,88,0.00,,,0.01,,2013-02-24 03:52:00,
2013-02-23 23:01:00,71.0,68.0,29.95,West,259,0.0,1.0,89,0.00,,,0.01,,2013-02-24 04:01:00,
2013-02-23 23:11:00,71.0,68.0,29.95,West,259,0.0,1.0,89,0.00,,,0.01,,2013-02-24 04:11:00,
2013-02-23 23:21:00,71.0,68.0,29.96,WSW,254,0.0,2.0,90,0.00,,,0.01,,2013-02-24 04:21:00,
2013-02-23 23:32:00,70.0,67.0,29.96,SW,232,0.0,2.0,91,0.00,,,0.01,,2013-02-24 04:32:00,
2013-02-23 23:42:00,70.0,67.0,29.96,SW,232,0.0,2.0,91,0.00,,,0.01,,2013-02-24 04:42:00,
2013-02-23 23:52:00,70.0,68.0,29.96,East,90,0.0,0.0,92,0.00,,,0.01,,2013-02-24 04:52:00,